Location: Rumah Apan
(2.7833°N, 113.9500°E)
Time: 23:01:16
(UTC+00:00)

Okean-O - Pass Details

Date: 25 July 2021
Orbit: 638 x 640 km, 98.2° (Epoch: 22 September)

Event Time Altitude Azimuth Distance (km) Brightness Sun altitude
Exits shadow 11:22:19 13° 132° (SE) 1,824 4.4 -11.2°
Maximum altitude 11:25:31 28° 77° (ENE) 1,188 3.6 -11.9°
Drops below altitude 10° 11:29:17 10° 18° (NNE) 2,020 5.2 -12.8°
Sets 11:31:43 0° 7° (N) 2,926 6.2 -13.4°
